Location: Altleiningen
(49.5078°N, 8.0741°E)
Time: 05:02:56
(UTC+00:00)

Cosmos 2333 Rocket - Pass Details

Date: 03 March 2021
Orbit: 837 x 864 km, 70.8° (Epoch: 11 April)

Event Time Altitude Azimuth Distance (km) Brightness Sun altitude
Rises 20:31:37 0° 229° (SW) 3,396 5.6 -31.7°
Reaches altitude 10° 20:34:09 10° 236° (SW) 2,468 4.8 -32.1°
Maximum altitude 20:39:34 44° 308° (NW) 1,159 3.2 -32.8°
Drops below altitude 10° 20:45:04 10° 20° (NNE) 2,499 4.8 -33.6°
Sets 20:47:40 0° 27° (NNE) 3,443 5.5 -33.9°
